Theta_e
345 345 346 344 343 344 342 341 342 344 343 345 342 340 338 337 338 336 336 336 335 335 332 333 336 340 340 339 339 340 343 344 344 341 341 340 340 339 340 340 341 340 340 340 337 336 335 335 335 334 333 332 330 336 337 335 333 332 333 332 331 330 330 330 329 329 328 327 327 327 326 325 325 325 324 325 325 324 324 324 324 324 324 325 324
346 346 345 345 343 344 343 342 342 346 346 344 343 341 338 338 336 336 334 336 337 336 333 333 333 338 339 338 339 341 343 342 343 343 342 341 342 340 340 340 340 341 339 339 338 337 337 335 335 335 334 334 331 333 338 336 335 334 333 331 332 331 330 330 329 329 328 328 327 326 326 326 325 325 325 324 324 324 324 324 323 323 324 324 324
347 347 344 342 343 344 342 343 344 346 346 344 345 343 341 339 338 338 337 337 336 335 332 334 335 335 337 338 339 339 340 343 342 342 341 342 342 342 339 339 340 339 339 338 339 338 337 337 335 334 334 334 333 332 335 337 336 336 335 332 332 331 331 330 330 328 329 328 327 327 326 326 325 325 324 324 324 324 323 323 323 323 322 322 322
344 343 342 342 342 343 344 346 345 344 344 343 344 344 342 340 340 341 339 339 337 336 335 334 335 335 336 335 336 337 340 340 341 342 340 342 342 342 343 340 339 340 338 339 339 338 339 338 337 335 334 333 334 333 332 334 336 337 336 335 333 332 331 331 330 330 329 329 327 327 327 326 326 325 324 324 324 323 323 323 322 322 322 322 322
345 346 345 345 346 346 346 347 347 346 346 345 344 344 343 342 342 341 340 340 337 336 334 336 337 336 338 337 339 338 337 337 341 342 340 341 338 337 341 341 341 339 340 340 338 339 339 339 339 338 337 335 334 334 333 334 332 332 335 337 334 333 332 331 331 331 330 329 328 329 328 326 326 325 324 324 324 323 323 322 323 322 321 322 322
345 346 345 346 346 346 346 345 346 348 347 347 344 344 341 341 338 339 337 338 336 337 336 336 335 336 338 338 339 340 338 336 338 341 343 342 338 338 336 337 338 340 338 338 340 339 339 339 339 339 339 339 336 334 334 335 334 333 332 337 336 334 334 333 332 331 330 330 329 329 328 327 326 325 325 324 324 323 323 323 322 322 321 321 322
344 344 343 344 344 344 344 345 346 347 344 345 344 345 345 342 337 339 340 338 338 339 338 338 338 338 339 340 338 338 340 339 339 337 339 342 343 341 340 336 337 337 337 339 339 339 339 339 339 339 338 339 339 336 335 335 335 335 335 336 337 336 335 334 333 332 331 330 329 329 328 328 328 326 325 324 324 324 323 323 323 322 321 321 321
343 344 344 344 343 343 343 345 346 345 343 344 345 343 343 342 343 341 338 338 336 337 338 338 339 339 340 340 340 338 338 337 337 334 337 339 339 342 342 340 340 338 335 338 341 340 339 338 338 338 339 339 339 338 338 336 336 335 336 336 339 337 336 334 333 333 332 330 330 329 329 328 329 328 326 325 324 324 324 323 323 322 322 321 321
344 344 344 345 343 344 343 344 345 344 343 342 342 343 342 339 340 342 342 340 335 335 336 337 337 338 339 340 340 339 339 339 338 337 336 336 336 335 336 339 340 336 342 340 341 341 338 339 337 338 337 338 339 340 339 339 338 337 337 336 339 338 337 336 335 334 333 332 331 331 330 329 329 329 328 326 325 324 324 323 323 322 322 322 321
344 344 345 344 344 343 343 343 343 343 343 341 338 341 340 337 336 339 340 340 334 333 335 335 335 335 337 337 339 338 338 338 337 336 336 336 337 335 335 337 337 339 339 340 339 340 341 339 337 337 336 337 338 339 341 339 339 339 338 338 338 337 337 336 336 335 334 333 332 332 331 330 329 329 329 328 326 325 324 324 323 323 322 322 322
344 344 343 342 342 343 343 343 343 342 343 341 332 335 335 336 338 338 340 340 335 335 338 334 334 334 333 334 335 337 338 337 337 335 334 336 333 333 336 337 338 338 341 341 339 339 341 341 340 338 338 334 337 338 339 338 338 338 338 337 336 336 336 336 337 337 336 335 333 332 331 331 330 330 330 329 328 326 325 324 324 323 323 322 322
343 343 342 342 341 341 342 343 343 342 341 337 335 334 335 338 336 338 337 337 338 337 337 335 336 336 334 334 334 335 335 336 336 335 336 334 333 333 333 335 337 338 338 340 342 340 341 342 343 341 336 335 335 336 336 336 337 338 338 338 338 336 336 337 336 336 337 336 335 334 333 333 331 330 330 330 329 328 326 325 324 324 324 323 322
342 342 341 340 340 340 340 341 342 342 341 340 334 335 337 340 337 338 336 336 337 339 338 338 334 332 333 332 332 336 336 336 336 335 333 331 331 330 331 333 334 334 335 337 336 336 337 339 340 340 338 340 338 334 336 335 336 337 337 338 337 338 338 337 337 336 336 337 337 335 334 334 332 331 331 330 330 329 328 327 326 325 324 324 323
341 341 341 341 340 340 340 339 339 340 340 339 333 334 337 337 337 335 337 335 335 337 336 336 330 327 325 325 328 329 334 335 331 331 331 330 330 331 331 329 327 329 331 332 333 334 334 337 339 340 339 339 338 338 333 334 335 335 336 336 336 337 338 338 337 337 337 337 337 336 336 335 334 332 332 332 331 330 329 329 327 326 325 325 324
340 341 342 342 342 341 339 339 339 338 337 337 336 334 335 336 336 335 333 335 334 336 337 335 326 329 329 325 320 321 327 329 329 328 329 330 329 328 329 326 325 327 328 329 329 332 333 335 336 339 341 341 339 339 336 331 334 334 333 332 333 335 337 337 337 337 337 337 338 338 336 335 335 334 333 332 332 331 330 330 328 327 327 326 325
340 340 341 341 342 341 340 339 339 341 339 338 338 333 331 334 336 337 336 331 330 330 335 335 333 330 322 321 321 319 317 317 321 325 327 327 325 325 325 324 325 325 326 326 328 330 333 335 337 339 340 341 341 338 338 337 335 334 331 330 330 332 335 336 337 337 337 337 338 337 336 335 335 335 334 333 332 332 331 331 330 329 328 327 326
340 339 338 339 341 341 340 339 339 339 339 338 337 338 337 338 337 336 335 332 329 330 332 335 335 335 329 324 320 316 316 320 321 322 327 323 322 323 324 323 324 324 324 325 328 330 331 332 336 338 339 340 340 338 337 336 335 336 334 325 325 325 325 330 335 335 337 337 337 338 337 335 335 335 335 334 333 332 332 331 331 330 329 328 327
335 335 335 335 338 337 336 334 335 336 336 336 336 336 337 337 337 335 332 333 332 330 329 333 335 336 336 336 333 322 319 322 320 314 323 323 322 321 322 322 323 322 323 324 324 325 327 328 331 332 334 337 337 337 334 331 330 327 327 322 320 321 317 320 327 332 335 335 337 338 338 338 336 335 335 334 334 333 332 332 332 331 331 330 329
334 334 334 334 334 333 333 332 331 332 333 333 331 332 330 330 337 335 334 334 334 330 330 330 333 335 336 336 335 330 331 321 320 318 315 318 319 319 319 320 321 321 320 322 323 323 323 324 327 327 329 332 332 332 332 328 324 321 318 317 317 317 316 314 318 324 329 331 334 335 336 336 337 336 335 335 335 334 333 333 332 332 332 331 330
331 331 334 333 333 331 332 332 330 329 328 329 331 330 332 334 338 338 336 335 334 331 329 331 329 330 334 333 331 333 334 331 326 320 317 312 311 317 319 322 322 321 321 321 322 322 323 323 323 323 324 326 328 328 328 326 324 324 321 316 317 315 315 313 310 313 321 331 333 333 334 335 335 336 335 334 333 334 334 333 333 333 333 332 331
331 332 332 330 331 330 331 331 330 329 327 328 331 331 333 334 336 336 334 333 332 333 331 329 331 330 331 331 330 328 327 329 330 326 318 313 311 312 314 318 320 319 320 321 321 323 322 321 321 322 324 324 324 324 324 325 323 322 317 315 314 314 312 311 308 307 311 323 330 334 335 335 335 336 335 335 334 334 334 335 334 333 333 333 333
332 331 331 329 330 330 330 331 331 329 328 331 331 331 332 333 334 335 334 333 333 332 331 331 332 332 331 330 328 326 326 325 324 322 318 318 313 310 314 314 313 315 318 318 319 319 320 321 322 320 322 323 323 322 321 320 319 318 316 313 313 312 311 309 307 306 311 316 325 332 334 335 335 335 335 335 336 336 334 334 333 334 334 335 334
329 330 330 329 330 331 331 329 330 330 328 328 330 329 332 335 337 336 335 333 333 334 333 333 332 331 330 328 326 322 320 318 319 318 316 315 314 313 314 313 313 313 315 316 316 316 316 317 317 318 319 321 320 320 319 319 317 314 312 312 312 311 310 307 305 305 309 313 317 322 330 333 335 334 334 334 335 335 335 335 335 334 333 334 334
328 326 328 329 329 330 331 329 328 329 328 329 330 331 332 333 336 335 334 334 334 333 333 333 332 330 328 325 324 324 322 320 318 317 316 315 316 314 312 312 312 313 314 316 315 315 314 314 315 316 317 318 319 319 318 318 315 314 313 310 310 309 309 308 304 304 303 306 310 316 322 326 328 328 327 328 331 331 332 332 331 331 332 332 331
324 325 327 328 328 328 328 327 327 329 329 328 329 330 331 332 335 335 335 334 334 334 332 330 327 324 322 321 316 316 316 316 317 316 316 317 317 312 312 312 310 311 313 313 311 312 312 311 313 314 315 317 317 318 317 316 315 315 312 309 308 308 307 306 307 304 303 303 306 310 315 318 322 323 322 321 320 322 321 320 317 313 315 318 324
324 325 325 326 327 328 329 329 329 329 328 329 329 327 327 325 329 330 330 330 330 329 327 327 326 323 321 316 316 314 315 316 316 316 315 315 314 314 313 314 312 309 311 312 312 309 308 309 310 313 314 316 317 317 318 317 317 314 312 311 308 306 306 305 305 304 303 304 305 307 309 311 314 316 317 317 315 313 313 312 310 309 309 309 310
322 325 326 327 328 327 327 326 327 328 328 327 327 327 327 325 325 327 326 325 323 323 323 323 321 319 320 316 315 315 314 315 314 313 314 316 316 316 314 310 310 310 309 310 311 309 306 307 309 310 313 317 317 316 316 317 315 315 313 314 310 305 305 304 304 304 303 303 302 302 303 305 307 308 309 310 310 310 311 311 310 308 308 308 309
325 325 327 327 325 324 324 324 325 326 326 325 324 323 324 322 321 323 322 321 322 321 320 320 321 320 319 317 316 315 318 316 317 316 315 317 318 318 316 313 309 306 308 307 308 306 309 307 307 308 310 313 315 315 313 313 315 312 314 315 313 309 304 304 303 303 302 302 301 301 301 302 303 304 305 307 308 308 309 308 308 308 308 308 309
324 325 325 325 325 324 322 322 323 323 323 322 321 320 320 320 320 319 320 320 319 318 318 318 319 318 319 319 317 317 317 319 317 317 317 317 318 318 316 314 314 309 307 306 307 306 306 307 305 306 309 310 313 314 313 312 312 314 318 315 311 309 305 303 302 302 302 301 302 301 300 301 302 303 305 306 307 307 306 305 305 305 306 307 308
323 323 323 323 322 321 319 319 321 321 321 319 318 318 319 317 318 317 316 317 316 317 316 316 317 318 319 318 318 316 319 319 318 320 319 318 315 315 315 316 315 311 310 308 308 310 307 308 308 305 307 308 310 312 311 310 312 311 313 315 313 308 304 302 301 300 300 301 301 300 300 300 301 303 305 304 305 304 304 304 304 304 305 305 305
322 323 322 320 320 319 318 317 318 319 319 318 318 317 317 315 315 314 316 316 315 316 317 317 317 319 319 318 319 317 319 319 319 320 320 318 317 316 316 318 318 318 315 312 308 309 312 308 306 307 306 307 308 311 310 309 308 311 313 313 312 307 305 303 301 301 301 300 300 300 300 300 301 301 302 303 304 304 304 303 303 303 303 303 303
321 321 320 319 319 318 317 317 315 315 315 316 317 317 317 316 315 314 316 316 314 314 315 317 315 318 318 318 317 317 318 317 318 319 318 320 320 317 318 318 317 318 317 314 311 308 310 309 307 306 306 308 308 308 309 307 306 308 311 310 310 307 310 307 302 301 301 300 300 299 300 300 300 300 300 301 302 303 302 302 302 302 302 301 301
322 320 319 319 318 319 318 317 316 316 316 317 317 317 316 316 316 316 316 315 314 314 315 316 316 317 316 316 316 316 318 317 317 318 317 318 319 318 318 317 316 317 316 314 310 308 309 312 309 306 307 309 306 307 306 309 310 308 307 310 310 311 311 313 308 302 300 300 300 300 300 299 299 299 299 299 300 301 302 301 301 300 299 299 299
323 318 318 320 320 319 318 318 319 318 317 317 319 319 316 316 317 317 317 315 314 314 315 313 315 316 317 314 313 315 316 314 316 314 315 315 315 315 315 316 314 315 317 314 312 310 308 309 307 307 307 309 305 307 309 309 308 309 306 308 308 307 307 311 311 307 299 302 300 299 301 299 299 299 299 299 299 300 301 300 300 299 299 299 298
322 322 319 320 320 319 319 319 319 319 318 317 319 320 320 319 317 318 318 317 317 316 315 314 312 314 315 315 314 315 316 316 316 316 316 314 314 313 314 314 314 314 313 314 314 312 310 308 310 307 308 308 309 306 307 308 308 307 307 307 307 307 308 309 309 308 299 301 299 299 299 300 299 299 299 299 299 299 300 299 299 299 299 298 297
320 323 323 319 319 319 318 318 319 319 319 319 319 318 317 318 319 319 319 319 318 318 317 316 314 315 315 315 315 316 315 316 316 315 315 315 315 314 314 315 314 312 316 317 317 314 311 308 309 307 308 309 307 308 307 308 308 308 308 308 308 309 309 309 308 309 303 299 299 300 299 300 299 299 299 299 299 299 300 299 299 299 299 298 298
322 322 322 321 320 319 319 317 316 317 318 319 319 319 319 319 318 319 319 319 320 319 319 319 317 318 317 317 317 316 316 316 317 316 316 315 314 315 315 313 312 313 315 315 315 314 313 310 310 310 311 309 309 310 309 309 309 309 309 308 308 309 310 310 310 308 305 298 300 299 299 299 299 299 299 299 299 300 300 299 299 299 299 299 298
324 323 321 321 319 319 318 317 317 317 319 319 319 320 321 322 323 323 322 321 320 319 320 320 319 319 319 318 318 318 317 317 317 317 318 316 314 315 314 313 312 313 315 315 316 315 313 311 312 310 311 309 309 310 310 310 310 309 310 311 311 310 311 311 311 309 310 308 310 308 303 302 300 299 300 300 299 299 299 300 299 299 299 299 297
325 324 323 321 321 320 319 319 319 319 320 321 323 324 324 325 325 324 325 324 322 322 321 320 320 320 320 320 320 320 319 319 318 318 319 317 316 315 315 314 312 312 313 314 314 314 314 313 313 313 312 312 313 310 308 311 310 309 309 309 310 311 312 311 310 310 310 310 306 300 301 302 301 303 301 300 299 298 299 300 300 299 299 297 296
325 324 324 322 322 321 322 321 322 324 324 323 322 322 323 324 324 324 324 324 325 325 324 323 322 321 321 321 321 320 320 320 320 320 320 318 317 316 315 315 313 312 312 312 313 313 313 314 313 312 313 312 311 312 311 311 310 310 309 308 307 308 309 311 311 310 311 309 308 308 303 300 301 301 298 298 298 298 299 300 301 301 298 296 295
326 325 325 324 323 322 323 324 324 323 322 322 321 322 322 322 322 322 323 323 323 323 324 324 324 323 323 322 321 322 322 318 309 310 309 309 320 317 317 316 314 312 312 312 312 312 313 313 312 313 312 311 312 312 310 309 308 307 309 310 308 308 308 308 309 311 309 307 307 306 305 307 305 307 307 308 307 305 303 301 302 300 298 296 296
325 325 325 324 323 324 323 323 323 323 323 322 315 306 310 320 321 319 321 322 322 323 323 322 321 322 322 323 324 318 312 309 307 303 301 300 302 314 319 318 313 312 312 311 311 311 312 311 310 311 310 310 310 310 309 310 310 310 309 309 306 306 307 307 308 310 309 308 306 304 304 306 307 307 307 306 307 308 309 309 308 301 299 296 296
324 324 324 323 323 322 322 323 323 322 320 320 302 300 301 303 316 321 322 322 321 321 321 318 321 322 324 324 327 319 314 310 311 300 298 298 298 297 296 298 304 319 313 310 310 311 310 310 311 311 309 308 309 310 310 309 310 309 308 308 307 306 305 303 302 307 310 308 305 303 303 307 307 304 305 306 307 308 308 308 298 299 297 297 296
323 325 324 323 322 322 322 321 323 324 322 309 299 300 299 299 305 320 322 320 319 319 319 319 318 318 319 321 323 324 325 326 323 319 306 297 295 296 295 296 292 290 293 312 313 311 310 309 309 310 309 308 308 309 309 309 308 307 308 308 307 305 304 303 303 302 307 309 304 302 302 306 306 305 304 305 306 307 307 302 298 298 297 297 297
325 323 322 322 321 321 320 319 319 321 322 304 299 298 298 297 297 309 320 320 318 317 317 319 319 319 319 320 320 322 320 309 314 320 322 316 296 293 294 293 293 292 291 290 293 307 313 310 309 308 309 308 307 308 309 308 307 306 307 305 306 305 305 303 303 303 305 307 303 302 301 303 304 303 304 305 306 307 307 300 297 297 297 297 297
324 322 322 321 321 320 319 319 320 322 322 305 299 298 298 297 295 302 320 318 319 319 320 319 320 320 319 319 319 320 320 319 320 320 320 320 312 308 306 305 306 303 293 293 294 294 301 310 310 308 311 309 307 309 308 307 305 304 304 303 305 304 303 302 304 303 305 306 303 302 300 301 304 303 301 304 306 306 306 302 296 297 297 297 297
322 321 321 320 320 320 320 321 321 321 323 300 297 297 298 297 293 298 318 320 319 319 319 319 319 319 318 319 318 317 315 312 308 306 315 316 313 311 309 308 308 308 311 310 311 312 309 310 309 310 310 309 309 308 308 307 307 306 305 304 303 303 303 304 304 305 305 306 306 303 298 300 303 301 302 303 305 305 306 300 297 297 297 297 296
322 322 321 321 320 320 321 323 322 321 327 296 297 297 296 294 293 314 319 318 316 316 317 318 317 318 318 318 317 316 314 309 298 291 298 313 313 310 308 309 308 305 301 295 292 294 304 308 309 309 309 304 297 305 304 303 304 306 305 304 304 303 302 301 300 302 300 304 305 302 299 299 303 301 301 303 304 303 304 305 299 297 298 296 296
321 320 321 321 322 322 322 322 322 321 323 302 296 295 294 293 302 316 317 315 315 315 315 316 315 315 314 314 315 314 311 307 294 292 293 297 312 310 309 308 307 306 303 300 293 291 290 290 289 289 289 289 291 290 290 290 297 299 300 298 299 302 299 297 298 298 299 302 303 303 300 298 301 301 300 302 302 302 302 303 305 299 297 296 296
320 321 322 321 322 322 322 320 321 321 318 301 293 295 294 297 306 316 315 314 314 314 314 314 314 311 305 296 307 314 310 306 291 293 292 305 311 310 309 308 307 306 305 304 302 299 290 290 289 289 289 289 288 287 289 290 289 294 299 297 299 299 297 297 295 297 299 300 301 303 300 299 301 301 299 301 301 302 302 304 304 303 296 296 295
321 321 321 321 321 321 321 320 309 316 315 301 293 294 295 297 309 316 314 313 312 312 312 311 311 310 306 301 294 301 305 299 289 292 291 301 312 310 310 308 307 307 306 306 305 304 304 304 302 301 300 294 298 300 300 289 291 293 298 299 300 299 297 297 297 297 296 298 302 305 298 298 299 300 299 297 296 300 303 303 303 304 304 304 303
Wind_Speed
5 5 5 5 3 3 4 4 4 4 5 3 3 3 3 3 3 3 3 3 3 4 4 5 4 3 2 3 4 4 3 2 2 3 4 4 5 8 6 5 5 4 4 4 3 3 1 2 4 4 5 4 2 5 5 5 5 5 6 6 6 6 6 5 6 6 6 6 5 6 6 4 5 5 5 6 6 6 5 5 6 6 7 7 7
5 5 5 4 3 3 3 4 5 5 5 4 3 3 3 3 4 3 4 3 3 3 4 5 5 4 3 3 2 3 3 2 2 2 4 4 5 7 8 6 4 4 4 3 2 1 1 2 2 4 4 4 2 4 7 6 5 5 5 5 5 5 5 6 5 6 5 6 5 5 5 4 4 5 4 4 5 5 5 5 5 6 7 7 7
4 5 5 5 4 4 5 5 5 5 4 4 3 3 3 3 3 3 2 2 2 3 4 5 5 5 4 4 3 3 2 2 2 2 3 4 4 5 7 6 4 3 3 3 2 1 0 2 2 3 5 5 5 3 6 8 5 4 4 6 6 5 5 5 6 5 6 6 5 4 4 4 4 4 4 4 3 4 4 5 4 5 5 5 6
4 4 4 5 5 5 4 5 5 4 4 4 4 4 3 3 3 3 3 3 2 2 1 4 4 3 3 3 2 2 2 1 2 2 2 3 3 4 5 7 6 5 2 3 4 2 1 1 1 3 4 3 4 4 5 5 6 7 6 7 7 6 6 6 6 6 6 7 7 6 4 5 4 4 4 4 4 4 4 4 4 3 4 5 5
4 5 5 5 5 5 4 4 5 5 5 5 5 4 4 4 3 3 3 3 3 3 2 2 3 2 2 4 3 3 3 3 3 3 3 3 2 2 2 3 6 7 6 4 3 3 3 2 2 1 1 2 3 4 5 5 4 4 6 10 9 8 8 8 7 7 7 7 7 7 6 5 5 5 4 4 4 4 4 3 3 3 3 4 5
6 5 4 4 4 4 4 4 5 5 5 5 5 4 5 5 5 4 3 3 3 3 2 2 3 3 2 3 3 3 1 3 2 3 2 4 3 2 1 1 1 3 6 7 7 4 4 2 2 2 2 4 2 3 4 5 5 5 4 10 10 10 9 8 7 7 7 7 6 6 6 6 6 5 5 5 5 4 4 5 4 3 2 3 4
5 4 5 4 4 4 4 4 5 6 5 5 5 4 4 5 5 5 4 2 3 2 2 2 1 3 3 2 3 3 2 2 1 1 2 3 3 3 3 2 1 1 1 4 7 5 5 4 2 1 2 4 3 3 4 4 5 6 6 10 13 11 9 8 7 6 7 6 7 7 6 6 6 6 6 6 6 5 5 5 5 5 2 3 3
6 5 5 4 4 4 3 2 5 5 5 5 5 5 5 4 4 4 4 3 3 3 2 3 3 3 2 2 3 2 2 2 2 1 2 1 2 1 2 2 3 1 2 2 0 6 7 5 4 4 3 3 3 4 4 4 4 4 6 7 12 11 8 7 6 6 6 6 7 7 7 7 7 9 8 7 7 7 6 6 5 6 6 3 2
6 6 5 5 3 3 3 3 4 5 6 5 6 5 4 5 4 3 3 2 3 3 3 3 3 3 2 3 3 2 3 3 3 3 2 1 1 1 1 1 2 4 3 2 1 2 7 8 7 5 6 5 5 6 6 6 5 5 4 4 8 9 9 8 9 10 9 8 8 8 9 9 8 9 9 9 8 8 7 7 6 5 5 6 4
6 5 4 4 3 3 4 4 4 4 5 7 5 2 4 5 6 4 3 3 3 3 2 4 3 3 3 3 2 2 2 2 2 1 1 2 1 1 2 1 0 1 1 1 1 1 2 8 8 7 5 5 6 7 8 8 7 6 5 3 2 5 8 9 10 11 11 10 9 10 10 9 9 9 9 9 9 8 7 7 7 6 5 5 6
5 5 4 4 4 3 3 4 4 4 5 6 6 4 5 7 6 5 4 3 3 3 1 2 3 4 4 4 4 3 2 2 0 2 3 2 3 2 1 2 2 3 2 1 1 2 2 3 2 3 3 4 5 5 6 7 6 5 3 2 2 3 4 7 10 11 11 10 9 9 10 9 9 9 9 9 8 8 6 6 7 7 7 6 6
5 5 4 3 3 3 4 4 4 4 4 7 7 4 5 7 7 6 6 5 4 4 4 4 3 4 4 3 2 3 3 2 2 2 2 2 2 1 2 1 1 3 3 2 1 1 2 1 2 9 3 4 5 4 1 3 3 2 3 5 6 6 7 6 5 7 11 12 11 11 9 9 11 10 10 9 8 8 7 8 8 9 9 9 8
4 5 4 4 4 4 4 4 4 3 3 3 12 8 5 3 4 5 6 5 5 4 5 4 5 5 4 4 4 2 3 2 3 3 2 2 2 2 3 3 4 3 4 3 3 3 2 2 3 3 1 6 3 4 5 4 3 2 3 4 3 7 10 9 8 9 10 12 13 12 11 11 12 12 11 10 10 10 9 10 10 10 10 9 9
4 5 5 4 5 5 5 4 3 3 2 4 9 9 7 4 4 5 4 4 4 3 4 5 6 6 6 6 4 4 2 2 3 4 2 2 2 2 3 3 4 4 4 3 3 3 2 2 3 2 2 3 2 5 6 2 3 5 6 6 6 5 7 8 8 10 10 11 12 13 12 12 13 13 13 13 12 11 11 10 11 10 10 9 9
4 5 4 5 5 5 4 4 4 3 4 5 7 7 4 5 6 4 5 4 4 4 5 6 4 4 5 4 6 5 4 4 4 4 4 4 2 3 2 2 3 3 2 4 4 4 3 3 3 3 3 2 2 2 9 2 4 6 9 10 9 9 6 5 7 9 11 11 12 13 11 10 14 15 15 15 14 13 13 12 11 12 11 11 11
6 5 3 4 4 4 4 4 4 3 3 4 5 8 10 8 6 5 5 6 5 5 4 4 5 4 7 6 4 5 4 4 5 5 5 4 3 3 3 3 3 4 3 2 2 3 3 4 3 3 3 3 3 2 7 4 7 9 13 12 10 8 7 7 7 7 9 11 12 12 12 12 13 15 15 16 15 14 13 13 13 12 12 12 12
6 6 6 5 4 3 3 4 4 3 3 3 4 4 5 6 6 5 5 5 6 4 4 5 6 5 6 4 5 6 5 7 7 6 2 4 4 4 4 4 4 3 3 3 3 3 4 5 5 5 4 3 3 3 4 4 4 5 7 11 11 10 9 8 7 7 8 9 10 12 12 13 13 12 15 15 16 15 15 15 15 14 13 13 13
5 6 6 5 5 4 3 3 3 3 2 3 3 3 4 5 6 6 6 5 4 6 5 5 6 5 5 4 4 3 5 6 7 6 4 4 4 5 5 5 4 4 4 5 5 6 5 5 4 5 5 5 5 6 8 7 7 7 7 8 12 12 11 12 10 7 6 7 9 11 12 14 14 12 13 14 14 13 14 14 14 14 14 13 12
5 6 6 5 4 4 2 1 2 2 2 3 3 3 4 4 5 5 5 5 6 6 6 6 5 5 4 3 1 2 5 9 6 6 6 5 4 5 6 6 6 6 6 6 6 5 5 5 6 6 6 6 7 7 7 8 9 9 11 9 9 10 10 10 13 13 10 7 8 9 10 9 10 13 13 12 12 12 12 13 14 14 14 14 13
6 6 6 6 4 4 2 1 1 2 3 3 3 2 2 3 3 3 4 4 5 4 5 5 6 5 4 4 3 3 3 1 1 6 6 6 6 6 7 7 6 6 6 6 6 6 5 5 6 6 6 7 7 6 7 7 7 6 7 11 9 10 11 10 10 11 13 10 5 5 6 8 8 6 10 12 12 13 13 14 16 15 14 14 13
5 6 5 5 4 3 3 3 2 2 2 3 3 4 3 4 5 4 4 3 3 2 4 5 4 4 5 4 4 4 4 3 1 3 5 7 7 7 7 7 6 6 5 5 6 5 5 5 5 6 6 6 6 7 6 6 6 6 8 10 10 10 12 11 11 11 12 13 9 6 4 4 4 6 4 8 14 14 15 16 17 15 15 14 14
4 5 5 5 4 4 4 5 4 3 3 3 3 4 4 4 4 3 3 3 3 3 3 3 3 5 5 5 5 5 5 5 5 4 5 5 6 7 7 7 7 5 4 5 6 5 6 5 5 6 6 5 6 7 7 8 7 6 7 10 9 9 7 5 9 10 12 12 12 10 8 8 5 5 6 7 8 15 14 14 15 15 15 17 16
5 5 5 5 5 5 5 5 4 4 3 3 3 3 3 3 4 4 3 3 3 3 3 2 3 4 5 4 4 4 4 5 5 4 4 5 7 7 7 7 8 7 5 5 5 6 6 5 6 6 5 6 6 6 7 8 9 9 12 12 13 11 11 10 10 12 13 13 13 13 14 13 13 14 14 13 12 6 10 15 14 13 12 17 17
5 5 5 5 5 5 5 5 4 3 4 3 3 4 3 3 4 4 4 3 4 3 4 4 4 4 3 3 2 2 3 3 3 3 3 5 5 7 7 7 7 6 6 5 5 6 6 6 6 6 6 6 6 7 6 8 9 11 11 14 14 14 13 12 13 14 14 14 13 14 15 15 14 15 14 14 13 12 11 10 7 3 9 10 9
5 6 5 5 5 5 4 4 4 4 4 4 4 4 4 4 5 5 5 5 4 4 4 5 5 4 3 2 2 3 2 3 2 2 2 4 5 6 6 5 5 6 6 5 5 5 5 6 6 6 6 6 7 7 8 8 8 6 11 13 15 14 14 13 12 12 13 13 13 13 15 15 15 15 15 14 14 13 12 12 11 9 8 6 6
6 6 5 5 5 6 6 6 5 5 5 5 5 4 4 4 5 6 7 5 5 5 5 5 4 4 2 3 3 4 4 3 3 2 4 5 5 5 6 5 5 5 5 4 4 4 5 6 6 6 6 6 6 6 6 7 7 8 11 10 13 13 13 13 12 13 13 12 13 11 14 14 15 15 15 15 14 14 13 12 10 8 7 6 6
6 6 6 6 6 6 6 6 6 5 5 5 4 5 3 4 5 5 5 4 5 4 4 4 3 4 4 4 4 4 3 3 2 3 4 3 4 5 5 6 5 3 4 4 5 5 5 5 5 6 5 5 5 5 6 7 7 3 2 8 9 13 12 12 13 14 13 13 12 13 13 13 13 13 14 13 13 14 13 12 12 11 9 6 5
6 6 5 5 6 6 6 6 6 6 5 5 4 4 4 4 5 5 5 3 4 4 4 4 4 5 4 4 4 5 4 4 4 3 3 3 4 5 4 4 5 5 4 4 3 4 3 4 6 5 5 4 4 4 4 5 5 2 4 6 7 9 11 11 13 13 13 12 12 12 12 13 13 13 13 13 13 13 12 13 11 11 11 10 8
5 5 5 5 5 6 6 6 6 5 5 4 4 4 4 4 5 5 4 3 3 4 3 4 4 3 4 4 5 5 5 5 5 5 4 3 4 3 3 3 2 4 5 5 4 3 4 4 3 5 4 4 3 3 3 5 6 8 6 6 7 7 8 10 12 12 12 12 12 11 11 11 12 13 13 13 13 12 12 13 13 13 12 12 10
4 4 5 6 6 6 6 6 5 5 5 4 5 5 4 5 5 4 4 4 4 4 4 4 3 4 4 4 4 5 4 5 5 5 4 4 3 3 1 2 2 2 3 4 5 3 4 3 3 4 3 4 3 2 3 4 6 8 4 5 6 7 8 10 10 11 11 11 11 11 10 9 9 10 10 11 11 12 12 12 12 12 12 12 13
5 5 5 6 5 6 6 6 6 6 5 5 5 5 5 5 5 5 4 4 4 4 4 4 4 4 4 4 4 5 4 4 4 4 4 4 4 4 4 3 4 3 4 5 5 3 2 4 3 3 3 3 3 3 2 3 3 5 2 2 5 9 9 9 9 9 9 10 10 10 10 9 9 8 9 9 9 9 9 10 10 11 12 12 12
5 5 5 6 6 6 6 6 6 6 6 5 5 5 5 5 5 5 5 5 5 5 5 4 4 4 4 4 4 4 3 3 3 3 3 3 3 4 4 4 4 3 1 2 5 6 2 3 3 3 3 2 1 3 3 3 3 7 2 2 4 12 6 8 10 8 8 8 8 9 9 9 9 9 9 8 8 8 8 9 10 11 9 10 11
5 6 6 6 7 6 7 6 7 6 6 5 5 4 5 5 4 5 5 4 5 5 4 4 4 4 4 4 4 3 1 1 3 3 3 3 3 2 3 3 3 2 2 4 5 6 4 1 2 2 2 2 3 1 3 2 2 3 1 2 1 1 1 2 6 8 6 6 7 7 7 8 9 8 8 8 7 7 7 8 8 9 8 9 10
4 5 6 5 5 6 6 6 6 6 6 6 5 4 5 5 5 3 3 4 4 5 4 4 4 2 2 3 4 3 1 2 1 3 4 3 4 4 4 2 3 3 0 2 4 4 5 4 3 3 3 2 2 2 2 1 1 2 1 1 1 2 3 3 2 5 5 5 6 6 6 6 7 8 8 8 7 6 6 7 7 7 7 6 9
4 3 5 6 6 5 5 5 6 5 6 6 4 4 4 4 5 4 3 3 3 4 4 4 5 4 3 2 3 3 1 1 1 1 1 2 2 3 2 2 2 2 2 1 2 4 4 4 4 4 3 2 1 3 3 2 1 2 1 1 2 2 1 2 3 4 7 2 2 4 6 5 6 7 7 7 7 7 6 6 7 6 7 7 8
6 5 5 7 7 6 6 5 5 5 5 5 5 4 4 3 3 4 3 3 2 2 2 3 4 4 4 3 3 3 3 2 2 2 2 1 2 2 3 3 3 2 2 1 1 2 3 4 4 3 4 4 4 3 2 3 1 1 2 1 1 1 3 3 3 2 7 4 6 4 4 6 6 6 7 7 7 7 6 6 7 6 6 6 7
6 6 6 6 7 8 7 7 7 6 6 6 6 5 4 4 4 3 3 3 2 3 3 2 2 3 4 4 3 4 4 3 3 3 2 2 3 2 2 2 3 3 2 2 1 2 3 3 3 1 2 3 1 0 1 2 2 3 3 2 2 3 2 4 4 2 5 9 9 9 5 7 7 4 6 7 7 7 6 6 7 7 6 6 7
6 6 7 7 7 8 8 8 8 7 7 6 6 5 5 5 4 3 2 2 3 3 4 4 4 4 4 5 5 5 5 5 4 3 3 4 3 3 2 3 2 3 2 2 2 1 1 3 3 3 2 2 3 1 1 1 2 3 3 3 2 4 2 3 4 3 4 2 3 3 5 8 6 6 8 6 7 8 7 6 8 7 5 7 9
6 7 8 8 8 8 8 8 8 8 8 7 6 5 4 3 2 2 1 2 2 3 3 5 5 5 6 6 6 6 6 6 6 6 5 5 4 4 4 3 3 2 3 3 3 3 3 2 2 2 3 2 1 2 3 1 3 2 3 5 6 4 4 5 6 3 2 3 5 10 8 5 7 8 5 9 9 9 9 8 8 5 1 6 8
6 7 8 9 9 9 9 9 9 8 8 7 6 5 3 2 2 2 2 2 2 3 4 5 5 5 6 7 7 8 7 7 7 7 7 7 5 6 6 4 4 4 4 4 4 4 4 4 5 3 3 2 3 1 2 2 3 2 4 5 7 7 6 6 6 5 3 4 6 7 5 10 11 12 15 16 13 8 10 11 9 5 4 7 7
6 6 7 8 9 9 9 9 10 8 8 6 4 3 2 2 3 4 5 5 5 5 5 6 6 6 6 6 7 8 6 2 5 5 6 5 5 7 6 6 6 5 5 5 5 6 6 6 5 4 5 6 4 4 4 3 4 4 4 4 6 7 7 8 7 5 3 5 6 7 8 8 7 7 8 7 3 8 7 10 7 9 7 7 7
7 7 8 8 9 10 11 10 9 8 6 5 8 10 3 2 3 3 4 5 6 6 6 8 8 6 6 5 5 3 5 2 3 4 5 6 7 7 6 5 6 6 6 6 6 5 6 6 7 5 6 6 6 2 4 2 3 4 5 5 7 7 8 8 7 6 4 4 7 9 9 8 7 8 8 6 5 4 5 5 5 8 7 6 7
9 9 10 11 11 11 11 10 10 7 6 6 12 12 13 7 2 2 3 4 5 6 6 8 7 6 6 5 4 8 6 5 7 8 7 6 7 9 6 10 6 2 6 7 6 6 5 5 6 5 5 4 4 3 4 3 3 4 5 5 6 7 7 9 9 8 3 5 8 10 10 8 7 8 7 7 6 6 6 4 10 10 8 7 7
9 9 10 11 11 11 10 10 9 7 7 8 13 13 13 15 12 5 2 2 4 5 6 6 6 6 5 4 4 3 3 2 2 6 8 9 8 3 1 3 6 8 8 4 4 5 4 6 5 5 4 4 4 3 4 3 5 6 6 6 7 7 8 9 9 9 7 7 10 11 11 8 6 8 8 7 7 6 6 4 5 6 7 7 8
10 11 11 11 11 10 9 10 9 8 8 13 13 12 11 12 11 6 4 4 5 6 5 5 4 4 4 3 3 2 2 4 5 4 3 6 6 6 7 9 9 8 8 7 7 5 5 4 5 5 4 3 4 4 2 3 4 7 7 7 7 8 8 10 10 10 10 9 10 10 10 9 8 8 8 7 7 6 6 8 9 7 6 6 6
10 11 12 12 11 11 11 12 11 9 10 13 17 14 12 12 10 7 6 6 6 4 3 2 1 0 1 1 1 1 2 1 2 1 1 3 5 5 6 6 5 6 6 7 5 4 4 4 3 5 2 2 4 3 2 2 4 6 7 8 8 8 9 11 12 12 12 8 9 9 10 9 7 8 9 9 7 7 7 4 8 7 5 4 4
10 11 12 12 11 12 11 11 11 11 8 13 13 14 14 13 12 7 7 6 6 5 4 3 2 2 2 2 1 2 3 4 4 6 2 2 3 4 6 7 6 6 4 4 3 2 1 1 2 2 1 1 1 0 1 2 3 5 5 8 9 10 10 11 11 11 10 8 8 6 10 9 8 9 9 8 8 8 8 8 9 10 8 5 5
9 9 10 11 12 11 12 11 10 11 6 15 14 15 13 13 13 8 8 7 6 6 5 4 3 3 2 2 2 3 4 5 5 6 6 1 5 5 7 7 6 6 7 5 6 8 7 5 4 4 4 6 6 5 5 4 4 5 6 7 8 9 10 9 9 9 9 7 6 7 9 10 8 10 10 8 9 10 9 9 5 11 10 8 6
9 10 10 11 10 11 12 11 8 10 6 13 15 14 13 15 12 9 9 8 7 6 5 5 4 4 4 4 2 3 5 5 3 4 4 6 6 6 6 6 5 5 6 5 6 7 8 9 8 8 8 6 6 5 4 4 4 6 6 8 9 8 9 11 11 10 9 7 7 8 10 11 9 9 10 9 10 10 10 10 10 9 9 9 10
10 10 10 10 9 7 6 6 5 4 2 8 12 13 14 15 12 10 9 8 8 6 6 4 4 5 7 10 9 3 5 5 2 3 5 5 4 5 5 6 5 5 5 4 4 4 5 5 5 5 4 4 2 2 2 2 3 5 6 8 9 8 10 10 11 10 10 9 10 8 8 9 9 9 11 10 10 10 9 8 7 3 13 12 15
10 9 9 10 9 7 5 4 8 5 5 5 5 12 15 16 10 9 8 8 7 7 7 6 6 5 6 8 11 9 7 5 5 6 8 6 3 2 3 3 4 4 4 4 4 4 5 5 5 5 5 6 6 6 7 10 8 8 8 9 8 8 9 10 10 10 10 8 3 4 6 9 9 8 9 10 10 8 7 8 7 8 9 10 8
Wind_Direction
170 184 194 209 184 172 190 183 180 179 177 187 175 165 163 173 165 169 162 152 155 179 171 165 165 179 170 147 159 142 119 119 100 105 96 87 95 105 105 86 70 51 37 21 49 103 147 140 138 133 120 129 80 128 149 147 147 132 131 125 129 116 116 109 98 107 104 100 103 89 96 106 87 73 63 63 71 69 62 62 63 51 53 61 61
178 177 185 183 177 182 200 192 180 185 184 173 160 168 159 159 169 171 150 170 153 159 174 153 168 166 152 148 131 104 136 135 110 102 105 110 108 115 110 114 89 74 35 33 42 58 94 115 133 140 130 129 145 128 157 158 157 148 145 131 130 136 133 132 130 115 111 120 103 109 99 85 97 87 89 77 71 69 64 64 70 66 62 61 57
179 175 176 166 179 189 199 186 182 179 174 152 162 154 162 155 163 153 137 116 138 143 183 155 162 163 157 167 147 143 146 109 115 107 107 100 110 124 127 119 109 95 87 62 63 95 62 66 138 119 154 160 151 159 153 169 167 164 167 150 148 152 157 152 146 147 135 137 131 134 129 112 108 113 107 110 94 78 70 62 70 72 79 82 71
189 193 164 169 182 191 187 192 168 163 168 153 156 148 156 142 134 124 101 113 115 109 145 165 166 147 169 137 108 113 102 109 95 108 112 111 105 110 131 134 124 119 102 57 79 82 103 324 6 164 150 152 156 159 170 172 184 187 177 172 168 169 174 173 167 163 157 150 149 148 147 139 130 126 117 85 95 102 90 74 78 75 71 83 90
166 182 177 183 187 191 188 181 172 164 157 154 141 150 138 135 134 125 133 116 110 132 149 133 151 117 129 128 127 117 114 137 122 119 111 116 109 109 117 137 143 151 141 129 93 90 86 133 180 241 305 170 149 175 168 177 194 208 188 182 181 183 184 182 182 180 170 168 163 161 160 147 150 144 141 130 131 116 124 121 89 80 81 80 88
184 190 197 192 187 194 193 177 174 156 147 150 155 165 152 150 143 149 128 147 124 124 138 127 126 157 124 110 91 80 151 116 96 97 122 111 127 150 100 30 90 154 163 157 151 148 118 100 126 186 241 307 264 171 166 182 192 185 207 179 186 190 192 191 193 187 182 177 179 173 163 163 165 152 163 156 145 158 142 138 157 99 96 107 79
200 196 186 202 188 187 193 186 164 155 152 161 158 155 152 153 157 149 146 144 137 117 105 109 100 80 82 66 102 114 77 72 86 95 92 99 146 142 142 153 120 270 339 155 176 148 129 124 128 136 190 222 263 214 183 200 194 209 218 184 184 190 193 195 199 200 195 190 184 183 176 178 175 172 169 169 170 171 167 149 164 164 153 154 135
188 193 187 198 193 174 176 184 152 159 149 152 164 164 153 142 115 134 155 151 138 143 131 120 112 101 82 81 86 96 101 94 70 52 56 49 77 90 136 161 175 160 208 286 359 160 156 171 182 185 174 187 231 243 263 218 221 224 213 205 186 186 193 198 210 219 222 211 200 194 189 194 190 183 180 170 179 189 175 175 176 164 176 166 180
188 184 189 189 181 159 159 177 180 165 163 156 176 159 147 136 128 116 114 150 179 139 151 140 136 128 120 104 78 60 60 34 40 31 53 45 318 111 152 152 137 176 194 230 229 161 175 175 197 204 184 190 197 224 221 233 245 243 242 249 187 196 198 202 205 208 212 213 211 210 202 201 202 202 187 185 182 191 189 180 190 176 175 186 172
180 177 184 167 161 159 151 166 184 159 164 178 82 52 125 146 148 145 132 168 173 127 180 159 159 154 135 115 103 100 98 80 76 312 10 41 50 353 12 51 229 85 88 252 267 235 214 181 200 189 194 200 215 215 227 230 232 236 244 242 263 219 219 217 211 213 217 215 218 218 216 212 210 209 201 196 188 191 195 197 188 194 193 193 184
170 163 155 157 156 152 150 155 167 175 161 142 142 235 175 170 165 151 145 166 154 126 230 161 154 155 144 137 154 114 71 74 19 64 50 44 31 15 357 26 12 355 52 69 337 297 317 317 181 105 190 221 226 239 263 259 249 251 258 264 277 281 267 224 230 223 222 225 227 223 222 216 220 222 217 214 202 194 204 210 205 202 199 204 192
149 146 144 138 139 140 140 160 156 171 171 134 126 181 214 179 156 157 151 156 168 160 171 179 144 135 106 95 54 96 99 94 79 72 70 89 79 29 68 110 70 48 33 39 58 345 345 42 286 132 210 211 205 199 199 31 26 349 269 225 222 224 241 245 244 242 235 230 233 225 219 211 214 221 223 224 222 223 218 212 212 210 205 203 203
134 130 128 133 134 137 148 157 170 151 146 133 120 180 200 189 140 142 151 154 150 167 154 175 160 141 145 140 136 69 99 124 94 80 64 57 51 58 37 24 35 40 36 13 4 342 76 9 13 19 147 161 186 191 167 80 54 12 356 336 272 235 234 234 229 227 228 231 230 228 217 216 208 212 216 221 227 229 223 216 218 215 212 207 202
125 122 132 139 138 145 148 143 138 134 131 125 138 170 173 174 161 149 155 155 146 164 155 188 185 197 172 169 149 156 111 90 82 84 86 87 87 72 55 41 38 9 9 349 345 323 2 31 23 27 17 344 149 180 129 221 217 53 30 11 353 313 260 240 236 234 237 239 235 231 221 217 210 208 213 217 225 226 229 224 212 218 215 215 214
128 132 144 153 146 136 129 134 145 148 161 149 141 137 169 180 174 162 151 160 166 176 180 237 230 198 209 196 175 149 152 111 94 85 72 61 45 75 99 97 83 104 19 335 352 346 355 24 22 14 1 356 348 14 112 163 84 77 55 31 13 350 322 288 244 241 241 240 241 236 229 228 216 208 210 216 221 221 223 225 216 212 214 217 217
133 137 126 110 123 131 139 142 145 157 152 155 159 165 176 189 175 167 166 159 175 173 201 210 258 194 210 182 171 132 154 171 128 96 91 89 77 72 60 70 80 75 79 48 35 1 2 33 38 45 10 24 356 327 64 85 145 116 64 36 18 4 346 330 301 261 242 242 243 241 237 233 227 211 211 215 220 222 217 217 218 214 214 218 220
114 108 107 108 106 111 110 118 125 142 158 150 169 166 165 167 169 174 183 190 172 170 197 219 236 258 283 199 168 179 178 146 135 107 112 108 91 91 72 74 65 71 86 85 110 76 50 54 46 43 35 30 32 19 68 79 68 31 61 41 21 20 9 349 331 306 290 267 252 244 234 229 238 229 219 219 218 220 219 216 212 211 211 217 222
121 115 107 108 104 102 116 133 137 161 179 162 162 168 182 171 169 181 188 202 196 175 183 202 227 224 267 328 338 77 136 166 168 123 106 74 66 60 86 80 83 74 62 68 52 50 51 72 58 63 55 49 43 50 63 56 51 49 33 37 19 22 13 6 1 343 304 281 278 270 254 232 224 233 234 231 227 224 224 222 218 215 211 217 223
124 124 116 110 110 108 113 159 154 166 168 188 180 188 201 183 168 184 179 176 187 190 176 179 195 207 223 261 274 199 187 184 140 153 136 106 78 86 68 63 58 65 71 71 71 65 60 67 62 55 57 64 58 61 71 81 79 73 47 21 24 19 15 12 11 11 354 323 297 286 285 294 259 232 231 237 241 236 230 229 227 223 217 218 222
131 124 124 120 118 120 113 101 159 142 166 162 161 166 158 131 156 164 159 179 191 195 181 177 202 171 192 199 193 176 183 273 214 165 141 135 118 90 82 77 77 70 67 73 78 83 73 58 76 76 61 56 65 68 70 67 58 53 44 10 9 20 15 11 16 13 13 9 342 290 279 277 286 268 236 236 233 236 234 229 232 229 227 229 228
112 117 113 112 116 117 117 118 116 126 138 136 137 132 139 142 154 163 172 166 198 173 185 191 203 155 172 174 174 175 166 186 254 194 160 145 127 119 113 103 93 78 73 73 82 80 64 61 64 74 76 75 74 67 62 60 55 50 36 13 17 20 28 2 18 18 23 21 24 23 8 325 311 299 303 239 233 232 233 237 238 234 234 238 235
106 101 96 88 82 90 110 100 98 80 71 86 104 123 140 139 130 148 153 155 142 163 186 187 169 159 176 158 174 167 168 164 186 183 156 137 139 139 136 134 112 89 85 97 93 82 82 73 61 60 61 66 70 71 61 54 45 39 29 21 28 33 36 10 32 30 31 28 28 27 37 36 358 336 359 347 281 239 227 233 240 241 232 237 239
114 99 83 85 82 84 95 95 89 81 92 110 104 116 127 123 121 122 135 131 133 128 137 158 151 159 169 174 162 161 164 161 163 167 153 146 138 140 142 120 115 111 84 67 73 80 87 82 71 61 69 67 62 68 71 67 58 54 45 33 35 32 35 40 40 44 43 33 32 27 32 31 33 36 30 25 27 7 243 238 240 244 260 258 246
116 107 95 91 95 93 92 96 85 83 88 85 96 108 106 112 118 131 123 121 120 137 140 143 152 141 127 130 125 101 155 182 155 154 174 145 153 144 139 136 130 114 115 102 84 78 58 57 66 73 63 66 70 71 77 81 69 57 55 41 41 34 34 37 40 39 43 38 32 33 36 38 41 45 42 35 35 39 38 41 31 311 255 273 287
113 106 97 101 106 108 107 101 101 84 78 89 87 78 82 98 109 119 124 135 136 136 133 129 136 133 114 88 107 119 99 44 96 159 145 141 154 154 138 144 123 130 135 139 106 73 62 65 56 48 62 68 62 63 75 68 64 51 71 54 35 35 33 36 36 39 42 42 39 39 41 39 40 44 46 43 37 40 46 50 47 36 37 20 331
106 98 104 104 92 87 84 82 80 87 86 77 68 74 84 107 105 104 107 108 109 114 117 113 98 92 106 110 80 84 66 73 87 129 150 167 163 156 142 125 147 142 144 148 136 118 84 64 57 57 55 53 62 73 65 81 91 78 69 65 47 32 36 37 38 40 40 38 35 29 38 41 42 43 44 44 43 40 40 43 47 44 37 29 9
105 101 99 101 100 92 87 87 83 81 82 83 85 84 64 85 102 91 92 97 96 97 97 100 100 94 80 90 104 94 98 101 106 123 152 159 154 149 155 142 148 135 122 104 98 70 97 67 48 70 62 62 67 58 73 81 69 9 149 74 68 43 35 40 43 44 41 38 36 33 33 32 33 36 37 38 39 38 33 29 33 37 38 32 12
98 101 98 101 101 105 100 92 92 93 93 91 84 79 73 89 95 88 90 88 100 104 108 98 89 90 98 103 107 98 100 102 104 73 82 118 130 148 157 156 152 141 143 115 96 81 31 90 85 52 74 76 67 77 118 112 85 239 99 72 60 57 39 41 44 44 43 40 38 36 33 31 31 30 29 31 30 30 29 27 26 28 28 22 16
98 93 99 95 93 90 94 97 98 99 97 92 90 93 99 97 98 99 94 93 95 88 83 102 106 109 96 99 102 109 95 85 86 99 100 115 126 160 199 176 168 141 156 132 108 101 78 13 72 79 64 72 62 68 54 49 21 323 96 91 72 64 46 48 45 44 40 39 38 38 34 32 30 28 27 28 29 28 27 26 20 17 14 13 11
111 106 103 101 99 99 99 99 97 98 99 97 96 103 111 101 100 102 93 101 109 105 103 104 103 107 111 106 103 97 85 93 89 91 102 107 132 139 112 109 258 162 137 128 107 74 102 66 35 80 74 93 116 97 91 99 20 324 76 103 100 84 81 60 51 46 42 37 36 32 33 33 30 29 28 29 28 28 25 23 20 18 10 8 6
127 125 122 116 114 106 107 106 106 107 106 104 112 110 105 106 108 107 111 113 105 105 101 99 104 111 104 96 96 93 90 90 100 100 105 119 117 117 97 76 59 58 107 123 133 77 7 93 74 44 60 54 64 82 75 59 38 310 105 117 119 131 112 78 62 53 42 39 33 29 27 25 24 25 27 29 29 28 22 21 19 16 15 12 6
139 140 133 127 128 127 121 118 121 122 121 120 122 121 122 117 125 123 120 128 120 118 123 128 125 121 120 114 100 99 108 130 111 100 94 80 77 101 105 99 90 70 107 118 109 118 80 89 103 117 115 82 43 117 124 132 125 273 110 131 134 166 198 106 85 58 49 38 32 25 25 21 17 18 15 15 19 23 27 24 19 17 12 7 5
164 154 145 145 142 143 139 138 132 131 126 125 123 128 124 126 119 120 139 136 131 122 120 124 124 142 142 126 124 116 114 90 117 137 128 119 126 120 113 122 112 111 102 113 124 122 124 145 159 101 89 232 112 53 96 107 179 151 167 62 355 256 286 138 112 88 54 40 28 20 15 13 12 11 9 8 7 9 17 22 21 17 10 5 359
181 160 153 148 151 154 149 144 141 135 138 130 136 131 128 124 118 130 139 144 124 120 139 139 129 120 137 153 133 134 143 126 163 176 143 170 161 161 150 147 121 113 25 132 133 144 137 167 160 152 133 255 123 88 84 51 82 315 57 124 111 340 15 315 139 98 91 39 13 13 360 355 2 357 357 357 357 352 357 5 16 16 10 359 358
178 177 157 157 158 154 148 148 143 142 143 140 139 137 127 141 138 137 145 131 137 140 157 155 162 144 171 160 159 152 169 169 216 24 82 211 219 107 93 108 105 128 132 97 154 135 157 148 171 172 145 133 291 137 148 128 342 306 269 44 353 26 9 332 319 115 113 72 350 345 340 334 327 346 337 339 343 339 334 345 354 2 4 357 353
178 177 168 167 160 159 155 153 150 156 153 152 157 159 148 141 155 147 157 162 170 176 172 177 162 165 178 182 175 177 184 197 217 155 205 155 256 123 164 136 150 138 104 155 257 126 154 156 187 199 153 180 188 188 189 194 207 253 326 261 223 357 358 343 312 333 115 167 215 258 302 294 282 320 320 313 324 327 320 319 330 339 349 353 348
186 178 177 176 170 171 166 169 166 167 165 160 156 158 157 172 170 170 185 181 194 207 216 214 208 213 192 206 198 187 192 214 199 216 186 218 234 158 201 167 176 144 179 232 137 169 166 156 147 143 186 187 123 122 324 297 194 203 202 231 301 309 338 335 308 302 160 197 217 221 244 272 261 280 285 286 301 303 302 302 311 318 334 349 349
187 190 190 186 186 177 177 174 169 166 160 160 160 152 149 161 165 164 175 188 204 213 207 228 222 214 227 225 215 209 205 215 218 213 216 209 233 237 216 248 173 155 207 183 221 174 202 157 172 167 216 212 195 170 181 242 322 317 339 322 246 214 270 308 310 299 325 330 331 282 240 253 201 258 241 263 274 270 268 278 290 300 319 355 353
190 195 195 190 187 184 178 172 167 162 154 147 135 136 149 141 140 145 172 196 219 223 233 227 228 231 229 229 230 224 221 220 223 221 211 218 217 240 230 218 253 169 204 231 222 203 216 199 202 234 191 176 266 235 161 246 219 257 344 337 320 327 323 320 312 303 275 297 269 218 239 288 289 281 260 245 237 243 255 258 275 260 325 22 356
205 208 198 193 184 185 171 173 162 150 148 149 144 142 133 114 88 37 19 339 314 269 251 252 247 243 241 244 243 243 239 233 235 236 222 217 211 222 220 209 230 204 223 225 250 259 250 260 282 267 275 279 217 257 299 274 332 322 16 337 322 321 317 319 306 300 281 299 317 327 216 208 231 229 232 237 231 250 240 253 230 199 85 14 357
200 212 206 195 181 178 172 165 155 156 157 142 138 131 107 101 49 26 11 353 327 304 289 265 246 246 253 254 253 249 247 282 18 4 0 350 247 229 218 200 210 211 236 236 231 244 265 271 270 264 273 271 273 304 301 324 342 342 331 318 311 312 317 310 312 311 293 302 314 321 320 321 306 306 312 309 194 204 248 224 185 149 53 4 349
194 195 191 187 184 178 176 167 166 168 162 161 138 124 89 60 21 12 352 333 323 313 310 300 283 268 262 256 245 135 83 137 255 274 271 287 307 300 310 223 196 222 232 241 245 247 263 266 271 287 287 301 322 331 307 310 323 316 321 324 318 320 310 308 304 313 332 316 319 316 319 317 309 301 295 300 298 261 286 276 32 3 353 340 329
196 191 192 185 186 187 185 174 172 167 161 162 157 148 139 133 205 273 301 304 304 296 281 272 280 287 276 262 254 141 168 186 218 218 232 233 244 270 314 342 353 278 238 234 243 259 264 265 282 274 274 288 276 274 288 318 312 323 322 321 314 314 315 318 313 316 327 354 318 314 309 311 300 295 299 297 294 286 284 285 33 336 324 306 307
194 190 194 196 193 192 192 192 184 176 181 178 182 175 172 168 175 194 217 244 274 280 283 286 279 276 280 282 276 268 257 14 307 190 200 213 222 218 106 56 60 47 43 14 275 237 243 266 268 267 278 275 288 275 288 321 330 324 316 312 312 310 309 306 305 304 326 337 317 308 302 301 296 295 287 282 287 283 285 309 277 261 276 295 301
178 191 205 202 199 202 207 216 220 211 221 176 195 202 187 172 166 177 219 232 236 245 258 261 286 299 303 299 286 273 99 130 226 244 222 173 131 98 109 97 76 69 64 48 37 11 330 278 280 287 268 304 291 299 41 358 337 301 305 308 318 312 303 298 297 306 307 319 302 292 295 304 301 288 287 287 286 283 275 236 209 223 256 291 298
203 197 199 198 201 206 211 222 223 221 224 179 195 196 180 175 165 184 217 215 224 225 203 209 198 324 21 326 301 131 70 63 30 13 250 150 143 153 160 175 155 113 111 105 82 61 0 318 320 297 16 344 308 35 57 346 311 302 309 311 315 304 299 295 301 294 292 288 278 292 288 289 300 302 291 291 289 286 275 269 176 232 243 245 280
217 208 205 205 213 225 222 220 227 228 222 160 178 173 176 174 169 175 212 196 192 172 165 151 150 129 117 118 104 81 79 48 34 351 333 143 147 156 168 170 162 161 103 66 42 19 50 322 315 335 31 14 25 314 274 288 283 290 305 304 300 293 289 286 278 268 272 267 255 249 277 294 300 292 288 291 291 284 284 282 215 205 194 194 215
226 226 223 224 224 228 230 225 221 228 183 161 167 173 172 171 159 188 189 172 169 162 151 143 133 115 95 85 102 96 81 77 43 358 345 348 152 153 146 135 123 98 73 58 36 34 31 29 29 26 47 49 34 29 21 349 301 293 283 274 269 267 270 277 284 293 286 285 273 263 275 284 294 292 292 288 287 284 287 285 243 178 183 191 207
231 231 230 227 226 224 228 230 232 230 172 166 165 171 170 166 166 185 167 170 155 150 134 128 120 81 50 17 55 95 96 82 28 350 7 322 137 144 143 147 140 128 118 110 74 56 60 65 67 68 65 61 62 49 40 16 345 329 300 287 279 288 293 291 291 290 290 296 290 280 281 284 289 291 293 291 286 287 285 283 284 170 178 185 220
230 235 234 234 232 226 226 226 219 281 149 155 167 166 174 166 185 176 170 162 148 144 138 132 113 89 57 29 355 91 97 96 68 23 352 309 139 138 148 152 153 145 135 142 145 105 100 102 99 102 113 118 145 188 183 201 220 259 268 282 297 298 286 284 287 293 294 294 283 281 270 276 294 293 294 294 290 277 271 275 286 197 180 207 215
240 244 243 242 233 222 218 201 102 162 142 118 178 186 170 170 203 183 171 152 157 153 150 139 127 112 93 61 38 42 68 82 63 48 10 335 139 152 156 187 183 175 140 156 166 174 180 189 177 185 190 186 210 222 193 188 199 220 250 267 280 279 284 287 291 294 290 281 333 64 279 286 293 296 301 299 291 290 288 286 278 282 293 298 281